Location: Unspecified
(0.0000°N, 0.0000°E)
Time: 02:39:55
(UTC+00:00)

ISS - Pass Details

Date: 22 September 2017
Orbit: 401 x 407 km, 51.6° (Epoch: 25 September)

Event Time Altitude Azimuth Distance (km) Brightness Sun altitude
Rises 18:30:11 0° 235° (SW) 2,305 1.0 -9.4°
Reaches altitude 10° 18:32:31 10° 250° (WSW) 1,446 0.3 -10.0°
Maximum altitude 18:35:11 24° 306° (NW) 885 -1.4 -10.7°
Drops below altitude 10° 18:37:51 10° 2° (N) 1,442 -1.0 -11.3°
Sets 18:40:11 0° 16° (NNE) 2,298 -0.2 -11.9°
